Tiempo cada hora Abraveses

Hoy, 24 Octubre, Sábado

Tiempo Temperatura Precipitaciones Viento Presión Humedad
00:00 +7°C° 0 mm 0 mps 726 mmHg 94%
01:00 +7°C° 0 mm 0 mps 725 mmHg 94%
02:00 +8°C° 0 mm 1 mps 725 mmHg 94%
03:00 +8°C° 0 mm 1 mps 725 mmHg 94%
04:00 +8°C° 0 mm 1 mps 725 mmHg 94%
05:00 +8°C° 0 mm 1 mps 725 mmHg 94%
06:00 +9°C° 0 mm 1 mps 725 mmHg 90%
07:00 +11°C° 0 mm 1 mps 725 mmHg 86%
08:00 +12°C° 0 mm 1 mps 725 mmHg 82%
09:00 +13°C° 0 mm 2 mps 725 mmHg 78%
10:00 +13°C° 0 mm 3 mps 725 mmHg 74%
11:00 +14°C° 0 mm 4 mps 725 mmHg 70%
12:00 +14°C° 0 mm 4 mps 725 mmHg 71%
13:00 +14°C° 0 mm 4 mps 724 mmHg 72%
14:00 +14°C° 0 mm 4 mps 724 mmHg 73%
15:00 +13°C° 0 mm 4 mps 723 mmHg 77%
16:00 +13°C° 0 mm 4 mps 723 mmHg 81%
17:00 +12°C° 0 mm 3 mps 722 mmHg 84%
18:00 +12°C° 0.1 mm 4 mps 722 mmHg 86%
19:00 +12°C° 0.1 mm 4 mps 722 mmHg 87%
20:00 +12°C° 0.1 mm 4 mps 722 mmHg 89%
21:00 +12°C° 0.1 mm 4 mps 721 mmHg 90%
22:00 +12°C° 0.1 mm 5 mps 721 mmHg 91%
23:00 +12°C° 0.1 mm 5 mps 720 mmHg 92%

Mañana, 25 Octubre, Domingo

Tiempo Temperatura Precipitaciones Viento Presión Humedad
00:00 +12°C° 0.2 mm 5 mps 720 mmHg 93%
01:00 +12°C° 0.2 mm 5 mps 719 mmHg 93%
02:00 +13°C° 0.2 mm 6 mps 719 mmHg 93%
03:00 +13°C° 3.1 mm 5 mps 719 mmHg 94%
04:00 +13°C° 3.1 mm 5 mps 718 mmHg 95%
05:00 +13°C° 3.1 mm 5 mps 718 mmHg 96%
06:00 +13°C° 2.3 mm 4 mps 718 mmHg 95%
07:00 +12°C° 2.3 mm 3 mps 718 mmHg 94%
08:00 +12°C° 2.3 mm 3 mps 719 mmHg 94%
09:00 +12°C° 0.4 mm 3 mps 719 mmHg 90%
10:00 +12°C° 0.4 mm 4 mps 719 mmHg 86%
11:00 +13°C° 0.4 mm 5 mps 719 mmHg 82%
12:00 +12°C° 0.3 mm 5 mps 719 mmHg 83%
13:00 +12°C° 0.3 mm 5 mps 718 mmHg 84%
14:00 +11°C° 0.3 mm 4 mps 718 mmHg 86%
15:00 +10°C° 0.3 mm 4 mps 718 mmHg 87%
16:00 +9°C° 0.3 mm 3 mps 718 mmHg 89%
17:00 +9°C° 0.3 mm 3 mps 718 mmHg 91%
18:00 +8°C° 0.2 mm 2 mps 719 mmHg 92%
19:00 +8°C° 0.2 mm 2 mps 719 mmHg 93%
20:00 +7°C° 0.2 mm 2 mps 720 mmHg 94%
21:00 +7°C° 0.4 mm 2 mps 720 mmHg 94%
22:00 +7°C° 0.4 mm 2 mps 720 mmHg 95%
23:00 +7°C° 0.4 mm 2 mps 720 mmHg 95%

Pasado mañana, 26 Octubre, Lunes

Tiempo Temperatura Precipitaciones Viento Presión Humedad
00:00 +6°C° 0.1 mm 2 mps 720 mmHg 95%
01:00 +7°C° 0.1 mm 1 mps 720 mmHg 95%
02:00 +7°C° 0.1 mm 1 mps 720 mmHg 96%
03:00 +7°C° 0 mm 1 mps 720 mmHg 95%
04:00 +7°C° 0 mm 1 mps 721 mmHg 95%
05:00 +6°C° 0 mm 1 mps 721 mmHg 95%
06:00 +8°C° 0 mm 1 mps 721 mmHg 92%
07:00 +9°C° 0 mm 1 mps 722 mmHg 88%
08:00 +10°C° 0 mm 1 mps 722 mmHg 85%
09:00 +10°C° 0.1 mm 2 mps 722 mmHg 80%
10:00 +12°C° 0.1 mm 2 mps 723 mmHg 75%
11:00 +13°C° 0.1 mm 2 mps 723 mmHg 70%
12:00 +12°C° 0.1 mm 3 mps 723 mmHg 68%
13:00 +12°C° 0.1 mm 3 mps 723 mmHg 67%
14:00 +12°C° 0.1 mm 3 mps 722 mmHg 65%
15:00 +11°C° 0 mm 3 mps 722 mmHg 73%
16:00 +9°C° 0 mm 2 mps 722 mmHg 81%
17:00 +9°C° 0 mm 1 mps 722 mmHg 89%
18:00 +9°C° 0 mm 1 mps 722 mmHg 91%
19:00 +8°C° 0 mm 1 mps 723 mmHg 92%
20:00 +8°C° 0 mm 1 mps 723 mmHg 94%
21:00 +8°C° 0 mm 1 mps 723 mmHg 94%
22:00 +8°C° 0 mm 1 mps 723 mmHg 94%
23:00 +8°C° 0 mm 1 mps 723 mmHg 95%

, 27 Octubre, Martes

Tiempo Temperatura Precipitaciones Viento Presión Humedad
00:00 +8°C° 0 mm 1 mps 722 mmHg 94%
01:00 +9°C° 0 mm 1 mps 722 mmHg 93%
02:00 +9°C° 0 mm 1 mps 722 mmHg 92%
03:00 +9°C° 0 mm 1 mps 722 mmHg 91%
04:00 +9°C° 0 mm 1 mps 722 mmHg 91%
05:00 +8°C° 0 mm 2 mps 722 mmHg 91%
06:00 +9°C° 0 mm 2 mps 722 mmHg 89%
07:00 +9°C° 0 mm 2 mps 722 mmHg 88%
08:00 +10°C° 0 mm 2 mps 722 mmHg 87%
09:00 +10°C° 0 mm 2 mps 722 mmHg 87%
10:00 +11°C° 0 mm 3 mps 722 mmHg 86%
11:00 +11°C° 0 mm 3 mps 722 mmHg 86%
12:00 +11°C° 0.2 mm 3 mps 721 mmHg 88%
13:00 +11°C° 0.2 mm 3 mps 721 mmHg 89%
14:00 +11°C° 0.2 mm 3 mps 721 mmHg 91%
15:00 +11°C° 0.3 mm 3 mps 720 mmHg 93%
16:00 +11°C° 0.3 mm 3 mps 720 mmHg 94%
17:00 +11°C° 0.3 mm 3 mps 720 mmHg 96%
18:00 +12°C° 0.9 mm 2 mps 720 mmHg 96%
19:00 +12°C° 0.9 mm 2 mps 720 mmHg 97%
20:00 +12°C° 0.9 mm 2 mps 720 mmHg 97%
21:00 +13°C° 1.1 mm 2 mps 721 mmHg 97%
22:00 +13°C° 1.1 mm 2 mps 721 mmHg 97%
23:00 +13°C° 1.1 mm 2 mps 721 mmHg 97%

27 Octubre, Martes

Tiempo Temperatura Precipitaciones Viento Presión Humedad
00:00 +8°C° 0 mm 1 mps 722 mmHg 94%
01:00 +9°C° 0 mm 1 mps 722 mmHg 93%
02:00 +9°C° 0 mm 1 mps 722 mmHg 92%
03:00 +9°C° 0 mm 1 mps 722 mmHg 91%
04:00 +9°C° 0 mm 1 mps 722 mmHg 91%
05:00 +8°C° 0 mm 2 mps 722 mmHg 91%
06:00 +9°C° 0 mm 2 mps 722 mmHg 89%
07:00 +9°C° 0 mm 2 mps 722 mmHg 88%
08:00 +10°C° 0 mm 2 mps 722 mmHg 87%
09:00 +10°C° 0 mm 2 mps 722 mmHg 87%
10:00 +11°C° 0 mm 3 mps 722 mmHg 86%
11:00 +11°C° 0 mm 3 mps 722 mmHg 86%
12:00 +11°C° 0.2 mm 3 mps 721 mmHg 88%
13:00 +11°C° 0.2 mm 3 mps 721 mmHg 89%
14:00 +11°C° 0.2 mm 3 mps 721 mmHg 91%
15:00 +11°C° 0.3 mm 3 mps 720 mmHg 93%
16:00 +11°C° 0.3 mm 3 mps 720 mmHg 94%
17:00 +11°C° 0.3 mm 3 mps 720 mmHg 96%
18:00 +12°C° 0.9 mm 2 mps 720 mmHg 96%
19:00 +12°C° 0.9 mm 2 mps 720 mmHg 97%
20:00 +12°C° 0.9 mm 2 mps 720 mmHg 97%
21:00 +13°C° 1.1 mm 2 mps 721 mmHg 97%
22:00 +13°C° 1.1 mm 2 mps 721 mmHg 97%
23:00 +13°C° 1.1 mm 2 mps 721 mmHg 97%

28 Octubre, Miércoles

Tiempo Temperatura Precipitaciones Viento Presión Humedad
00:00 +13°C° 0.3 mm 2 mps 721 mmHg 98%
01:00 +13°C° 0.3 mm 2 mps 720 mmHg 98%
02:00 +13°C° 0.3 mm 2 mps 720 mmHg 98%
03:00 +13°C° 0.1 mm 2 mps 721 mmHg 98%
04:00 +13°C° 0.1 mm 2 mps 721 mmHg 98%
05:00 +13°C° 0.1 mm 1 mps 721 mmHg 98%
06:00 +13°C° 0.1 mm 2 mps 721 mmHg 95%
07:00 +13°C° 0.1 mm 2 mps 722 mmHg 92%
08:00 +14°C° 0.1 mm 2 mps 722 mmHg 89%
09:00 +14°C° 0 mm 2 mps 722 mmHg 83%
10:00 +15°C° 0 mm 2 mps 722 mmHg 78%
11:00 +15°C° 0 mm 2 mps 723 mmHg 73%
12:00 +15°C° 0 mm 2 mps 723 mmHg 71%
13:00 +15°C° 0 mm 2 mps 723 mmHg 69%
14:00 +15°C° 0 mm 2 mps 722 mmHg 67%
15:00 +14°C° 0 mm 2 mps 722 mmHg 72%
16:00 +13°C° 0 mm 1 mps 722 mmHg 76%
17:00 +12°C° 0 mm 1 mps 722 mmHg 81%
18:00 +11°C° 0 mm 1 mps 723 mmHg 84%
19:00 +10°C° 0 mm 1 mps 723 mmHg 86%
20:00 +9°C° 0 mm 0 mps 723 mmHg 89%
21:00 +8°C° 0 mm 0 mps 723 mmHg 90%
22:00 +8°C° 0 mm 0 mps 723 mmHg 90%
23:00 +8°C° 0 mm 0 mps 723 mmHg 91%

29 Octubre, Jueves

Tiempo Temperatura Precipitaciones Viento Presión Humedad
00:00 +8°C° 0 mm 0 mps 723 mmHg 91%
01:00 +8°C° 0 mm 0 mps 723 mmHg 91%
02:00 +7°C° 0 mm 0 mps 722 mmHg 91%
03:00 +7°C° 0 mm 0 mps 723 mmHg 91%
04:00 +7°C° 0 mm 0 mps 723 mmHg 91%
05:00 +7°C° 0 mm 0 mps 723 mmHg 90%
06:00 +8°C° 0 mm 0 mps 723 mmHg 85%
07:00 +10°C° 0 mm 0 mps 724 mmHg 79%
08:00 +11°C° 0 mm 0 mps 724 mmHg 73%
09:00 +13°C° 0 mm 0 mps 724 mmHg 67%
10:00 +15°C° 0 mm 0 mps 724 mmHg 61%
11:00 +17°C° 0 mm 0 mps 724 mmHg 55%
12:00 +19°C° 0 mm 1 mps 724 mmHg 55%
13:00 +19°C° 0 mm 1 mps 724 mmHg 55%
14:00 +19°C° 0 mm 1 mps 724 mmHg 55%
15:00 +16°C° 0 mm 1 mps 723 mmHg 64%
16:00 +14°C° 0 mm 1 mps 723 mmHg 73%
17:00 +11°C° 0 mm 0 mps 723 mmHg 82%
18:00 +11°C° 0 mm 0 mps 723 mmHg 85%
19:00 +10°C° 0 mm 0 mps 723 mmHg 87%
20:00 +10°C° 0 mm 0 mps 724 mmHg 89%
21:00 +9°C° 0 mm 0 mps 723 mmHg 90%
22:00 +10°C° 0 mm 1 mps 723 mmHg 90%
23:00 +10°C° 0 mm 1 mps 723 mmHg 90%
Mostrar más

Necesitamos Su Consentimiento

Meteoprog y nuestros Proveedores de Servicios pueden almacenar y acceder a sus datos personales como cookies, identificadores de dispositivo u otras tecnologías similares de su dispositivo y procesar dichos datos para personalizar contenido y anuncios, además de ofrecer funciones de redes sociales y analizar el tráfico.

  • Almacenar y/o acceder a información en su dispositivo

    Se puede almacenar o acceder a cookies, identificadores de dispositivo u otra información de su dispositivo para los fines anteriormente indicados.

  • Anuncios y contenido personalizados, medición de anuncios y contenido, percepciones del público, y desarrollo de productos

    Los anuncios y el contenido pueden personalizarse en base a su perfil. Se pueden añadir más datos para personalizar mejor los anuncios y contenidos. Se puede medir el rendimiento de los anuncios y contenidos. Se puede obtener la percepción sobre el público que ha visto los anuncios y contenidos. Dichos datos pueden usarse para desarrollar o mejorar la experiencia del usuario, sistemas y software.

Al hacer clic en ‘Estoy De Acuerdo’ usted permitirá el uso de las cookies, identificadores de dispositivo, balizas web u otras tecnologías similares indicadas. Su configuración puede cambiarse desde el navegador de su dispositivo.

Para ciertos fines, los intereses legítimos pueden ser considerados por encima del consentimiento. Puede leer más sobre ello en nuestra Política de Privacidad y Cookies.